Location: Peterborough
(44.3091°N, 78.3197°W)
Time: 16:34:00
(UTC-04:00)

Vanguard 3 - Visible Passes

Search period start: 15 July 2024 00:00
Search period end: 25 July 2024 00:00
Orbit: 508 x 3231 km, 33.4° (Epoch: 15 July)

Date Brightness Start Highest point End Pass type
(mag) Time Alt. Az. Time Alt. Az. Time Alt. Az.
15 Jul 10.2 01:33:42 29° SSE 01:38:04 32° SE 01:53:53 10° E visible
15 Jul 10.2 03:37:49 18° SW 03:51:56 54° SSE 04:09:57 10° E visible
16 Jul 10.5 00:18:58 20° SE 00:18:58 20° SE 00:30:28 10° E visible
16 Jul 10.1 02:23:06 30° SSW 02:31:20 45° SSE 02:49:08 10° E visible
16 Jul 10.2 04:28:12 10° WSW 04:46:11 59° S 05:03:58 10° ESE visible
17 Jul 10.1 01:08:21 31° SSE 01:11:31 33° SE 01:27:14 10° E visible
17 Jul 10.1 03:12:28 21° SW 03:25:09 54° SSE 03:43:41 10° E visible
17 Jul 10.5 23:53:32 20° SE 23:53:32 20° SE 00:03:42 10° E visible
18 Jul 10.0 01:57:39 32° SSW 02:04:39 45° SSE 02:22:32 10° E visible
18 Jul 10.1 04:02:10 10° WSW 04:19:22 59° S 04:37:50 10° ESE visible
19 Jul 9.9 00:42:49 32° SSE 00:45:02 33° SE 01:00:24 10° E visible
19 Jul 10.0 02:46:55 22° SW 02:58:23 55° SSE 03:17:12 10° E visible
19 Jul 10.2 04:55:52 10° W 05:13:42 58° S 05:31:32 10° ESE visible
19 Jul 10.4 23:27:55 20° SE 23:27:55 20° SE 23:36:48 10° E visible
20 Jul 9.8 01:32:00 34° SSW 01:38:04 45° SSE 01:55:44 10° E visible
20 Jul 10.0 03:36:18 10° WSW 03:52:32 59° S 04:11:27 10° ESE visible
21 Jul 9.8 00:17:01 32° SSE 00:18:39 33° SE 00:33:25 10° E visible
21 Jul 9.8 02:21:06 23° SW 02:31:42 55° SSE 02:50:29 10° E visible
21 Jul 10.1 04:29:50 10° W 04:46:49 57° S 05:05:15 10° ESE visible
21 Jul 10.2 23:01:54 19° ESE 23:01:54 19° ESE 23:09:48 10° E visible
22 Jul 9.7 01:05:58 34° SSW 01:11:35 45° SSE 01:28:46 10° E visible
22 Jul 9.9 03:10:34 10° WSW 03:25:45 58° S 03:44:50 10° ESE visible
22 Jul 9.6 23:50:38 31° SSE 23:52:23 32° SE 00:06:20 10° E visible
23 Jul 9.7 01:54:40 20° SW 02:05:06 54° SSE 02:23:35 10° E visible
23 Jul 10.0 04:03:59 10° W 04:19:58 56° S 04:38:43 10° ESE visible
23 Jul 9.9 22:34:44 19° SE 22:34:44 19° SE 22:42:46 10° E visible
24 Jul 9.5 00:38:42 28° SSW 00:45:13 45° SSE 01:01:40 10° E visible
24 Jul 9.8 02:44:58 10° WSW 02:59:02 58° S 03:18:01 10° ESE visible
24 Jul 10.2 04:57:45 10° W 05:14:01 49° SSW 05:31:54 10° SE visible
24 Jul 9.5 23:17:42 10° SSW 23:26:16 31° SE 23:39:12 10° E visible
